Time,TemperatureF,DewpointF,PressureIn,WindDirection,WindDirectionDegrees,WindSpeedMPH,WindSpeedGustMPH,Humidity,HourlyPrecipIn,Conditions,Clouds,dailyrainin,SoftwareType,DateUTC
2013-03-03 00:05:00,36.7,27.0,30.31,SSE,163,0.0,-999.0,68,-99.99,,,0.00,weatherlink.com 1.10,2013-03-03 07:05:00,
2013-03-03 00:20:00,36.7,27.0,30.31,SSE,163,0.0,-999.0,67,-99.99,,,0.00,weatherlink.com 1.10,2013-03-03 07:20:00,
2013-03-03 00:35:00,36.4,27.0,30.31,SSE,163,0.0,-999.0,68,-99.99,,,0.00,weatherlink.com 1.10,2013-03-03 07:35:00,
2013-03-03 00:50:00,36.0,26.0,30.32,SSE,163,0.0,-999.0,68,-99.99,,,0.00,weatherlink.com 1.10,2013-03-03 07:50:00,
2013-03-03 01:05:00,35.5,26.0,30.32,SSE,163,0.0,-999.0,69,-99.99,,,0.00,weatherlink.com 1.10,2013-03-03 08:05:00,
2013-03-03 01:20:00,35.2,26.0,30.32,SSE,163,0.0,-999.0,70,-99.99,,,0.00,weatherlink.com 1.10,2013-03-03 08:20:00,
2013-03-03 01:35:00,35.3,26.0,30.31,SSE,163,0.0,-999.0,70,-99.99,,,0.00,weatherlink.com 1.10,2013-03-03 08:35:00,
2013-03-03 01:50:00,35.2,26.0,30.30,SSE,163,0.0,-999.0,70,-99.99,,,0.00,weatherlink.com 1.10,2013-03-03 08:50:00,
2013-03-03 02:05:00,35.3,26.0,30.29,SSE,163,0.0,-999.0,70,-99.99,,,0.00,weatherlink.com 1.10,2013-03-03 09:05:00,
2013-03-03 02:20:00,35.6,27.0,30.28,SSE,163,0.0,-999.0,70,-99.99,,,0.00,weatherlink.com 1.10,2013-03-03 09:20:00,
2013-03-03 02:35:00,36.1,27.0,30.29,SSE,163,0.0,-999.0,69,-99.99,,,0.00,weatherlink.com 1.10,2013-03-03 09:35:00,
2013-03-03 02:50:00,36.2,27.0,30.28,SSE,163,0.0,-999.0,69,-99.99,,,0.00,weatherlink.com 1.10,2013-03-03 09:50:00,
2013-03-03 03:05:00,36.0,26.0,30.28,SSE,163,0.0,-999.0,68,-99.99,,,0.00,weatherlink.com 1.10,2013-03-03 10:05:00,
2013-03-03 03:20:00,35.3,26.0,30.27,SSE,163,0.0,-999.0,69,-99.99,,,0.00,weatherlink.com 1.10,2013-03-03 10:20:00,
2013-03-03 03:35:00,34.9,26.0,30.27,SSE,163,0.0,-999.0,70,-99.99,,,0.00,weatherlink.com 1.10,2013-03-03 10:35:00,
2013-03-03 03:50:00,34.6,26.0,30.27,SSE,163,0.0,-999.0,70,-99.99,,,0.00,weatherlink.com 1.10,2013-03-03 10:50:00,
2013-03-03 04:05:00,34.6,26.0,30.27,SSE,163,0.0,-999.0,70,-99.99,,,0.00,weatherlink.com 1.10,2013-03-03 11:05:00,
2013-03-03 04:20:00,35.0,26.0,30.28,SSE,163,0.0,-999.0,69,-99.99,,,0.00,weatherlink.com 1.10,2013-03-03 11:20:00,
2013-03-03 04:35:00,35.2,26.0,30.27,SSE,163,0.0,-999.0,69,-99.99,,,0.00,weatherlink.com 1.10,2013-03-03 11:35:00,
2013-03-03 04:50:00,35.5,25.0,30.27,SSE,163,0.0,-999.0,67,-99.99,,,0.00,weatherlink.com 1.10,2013-03-03 11:50:00,
2013-03-03 05:05:00,35.5,25.0,30.27,SSE,163,0.0,-999.0,67,-99.99,,,0.00,weatherlink.com 1.10,2013-03-03 12:05:00,
2013-03-03 05:20:00,36.2,25.0,30.27,SSE,163,0.0,-999.0,65,-99.99,,,0.00,weatherlink.com 1.10,2013-03-03 12:20:00,
2013-03-03 05:35:00,36.8,26.0,30.27,SSE,163,0.0,-999.0,64,-99.99,,,0.00,weatherlink.com 1.10,2013-03-03 12:35:00,
2013-03-03 05:50:00,36.5,25.0,30.28,SSE,163,0.0,-999.0,64,-99.99,,,0.00,weatherlink.com 1.10,2013-03-03 12:50:00,
2013-03-03 06:05:00,36.5,25.0,30.29,SSE,163,0.0,-999.0,63,-99.99,,,0.00,weatherlink.com 1.10,2013-03-03 13:05:00,
2013-03-03 06:20:00,36.6,25.0,30.29,SSE,163,0.0,-999.0,63,-99.99,,,0.00,weatherlink.com 1.10,2013-03-03 13:20:00,
2013-03-03 06:35:00,37.1,25.0,30.29,SSE,163,0.0,-999.0,63,-99.99,,,0.00,weatherlink.com 1.10,2013-03-03 13:35:00,
2013-03-03 06:50:00,38.9,26.0,30.28,SSE,163,0.0,-999.0,61,-99.99,,,0.00,weatherlink.com 1.10,2013-03-03 13:50:00,
2013-03-03 07:05:00,42.6,27.0,30.28,SSE,163,0.0,-999.0,55,-99.99,,,0.00,weatherlink.com 1.10,2013-03-03 14:05:00,
2013-03-03 07:20:00,46.4,28.0,30.28,SW,235,1.0,-999.0,50,-99.99,,,0.00,weatherlink.com 1.10,2013-03-03 14:20:00,
2013-03-03 07:35:00,49.4,29.0,30.28,SSW,209,2.0,-999.0,45,-99.99,,,0.00,weatherlink.com 1.10,2013-03-03 14:35:00,
2013-03-03 07:50:00,51.3,30.0,30.28,SW,234,4.0,-999.0,44,-99.99,,,0.00,weatherlink.com 1.10,2013-03-03 14:50:00,
2013-03-03 08:05:00,53.6,30.0,30.28,SW,224,0.0,-999.0,41,-99.99,,,0.00,weatherlink.com 1.10,2013-03-03 15:05:00,
2013-03-03 08:20:00,55.1,30.0,30.28,SSW,196,3.0,-999.0,39,-99.99,,,0.00,weatherlink.com 1.10,2013-03-03 15:20:00,
2013-03-03 08:35:00,56.2,31.0,30.28,SSW,195,2.0,-999.0,38,-99.99,,,0.00,weatherlink.com 1.10,2013-03-03 15:35:00,
2013-03-03 08:50:00,57.6,31.0,30.27,SSW,192,3.0,-999.0,36,-99.99,,,0.00,weatherlink.com 1.10,2013-03-03 15:50:00,
2013-03-03 09:05:00,58.4,31.0,30.26,South,186,3.0,-999.0,35,-99.99,,,0.00,weatherlink.com 1.10,2013-03-03 16:05:00,
2013-03-03 09:20:00,59.5,31.0,30.25,South,169,5.0,-999.0,34,-99.99,,,0.00,weatherlink.com 1.10,2013-03-03 16:20:00,
2013-03-03 09:35:00,61.1,32.0,30.25,South,188,4.0,-999.0,33,-99.99,,,0.00,weatherlink.com 1.10,2013-03-03 16:35:00,
2013-03-03 09:50:00,62.2,32.0,30.25,SSW,192,5.0,-999.0,32,-99.99,,,0.00,weatherlink.com 1.10,2013-03-03 16:50:00,
2013-03-03 10:05:00,63.6,31.0,30.23,South,169,6.0,-999.0,30,-99.99,,,0.00,weatherlink.com 1.10,2013-03-03 17:05:00,
2013-03-03 10:20:00,64.7,33.0,30.23,SSW,193,5.0,-999.0,31,-99.99,,,0.00,weatherlink.com 1.10,2013-03-03 17:20:00,
2013-03-03 10:35:00,66.4,33.0,30.21,SSE,165,6.0,-999.0,29,-99.99,,,0.00,weatherlink.com 1.10,2013-03-03 17:35:00,
2013-03-03 10:50:00,67.4,32.0,30.20,South,190,6.0,-999.0,27,-99.99,,,0.00,weatherlink.com 1.10,2013-03-03 17:50:00,
2013-03-03 11:05:00,68.1,32.0,30.18,South,188,6.0,-999.0,26,-99.99,,,0.00,weatherlink.com 1.10,2013-03-03 18:05:00,
2013-03-03 11:20:00,69.1,33.0,30.18,SW,220,5.0,-999.0,26,-99.99,,,0.00,weatherlink.com 1.10,2013-03-03 18:20:00,
2013-03-03 11:35:00,68.8,31.0,30.16,SW,236,5.0,-999.0,25,-99.99,,,0.00,weatherlink.com 1.10,2013-03-03 18:35:00,
2013-03-03 11:50:00,70.3,32.0,30.16,SSW,192,6.0,-999.0,24,-99.99,,,0.00,weatherlink.com 1.10,2013-03-03 18:50:00,
2013-03-03 12:05:00,71.0,33.0,30.15,SSW,202,6.0,-999.0,25,-99.99,,,0.00,weatherlink.com 1.10,2013-03-03 19:05:00,
2013-03-03 12:20:00,71.8,33.0,30.13,SW,229,13.0,-999.0,24,-99.99,,,0.00,weatherlink.com 1.10,2013-03-03 19:20:00,
2013-03-03 12:35:00,72.2,32.0,30.12,South,184,4.0,-999.0,23,-99.99,,,0.00,weatherlink.com 1.10,2013-03-03 19:35:00,
2013-03-03 12:50:00,73.1,33.0,30.11,SSE,165,10.0,-999.0,23,-99.99,,,0.00,weatherlink.com 1.10,2013-03-03 19:50:00,
2013-03-03 13:05:00,73.1,33.0,30.11,South,186,5.0,-999.0,23,-99.99,,,0.00,weatherlink.com 1.10,2013-03-03 20:05:00,
2013-03-03 13:20:00,73.3,32.0,30.09,SSW,196,4.0,-999.0,22,-99.99,,,0.00,weatherlink.com 1.10,2013-03-03 20:20:00,
2013-03-03 13:35:00,73.6,34.0,30.09,SSW,201,3.0,-999.0,23,-99.99,,,0.00,weatherlink.com 1.10,2013-03-03 20:35:00,
2013-03-03 13:50:00,73.6,32.0,30.08,South,185,4.0,-999.0,22,-99.99,,,0.00,weatherlink.com 1.10,2013-03-03 20:50:00,
2013-03-03 14:05:00,74.3,33.0,30.07,South,184,12.0,-999.0,22,-99.99,,,0.00,weatherlink.com 1.10,2013-03-03 21:05:00,
2013-03-03 14:20:00,74.3,33.0,30.06,SSW,197,4.0,-999.0,22,-99.99,,,0.00,weatherlink.com 1.10,2013-03-03 21:20:00,
2013-03-03 14:36:00,74.2,34.0,30.05,SSW,210,6.0,-999.0,23,-99.99,,,0.00,weatherlink.com 1.10,2013-03-03 21:36:00,
2013-03-03 14:51:00,73.9,34.0,30.05,SSW,211,14.0,-999.0,23,-99.99,,,0.00,weatherlink.com 1.10,2013-03-03 21:51:00,
2013-03-03 15:06:00,73.9,34.0,30.03,South,182,4.0,-999.0,23,-99.99,,,0.00,weatherlink.com 1.10,2013-03-03 22:06:00,
2013-03-03 15:21:00,74.3,34.0,30.02,South,187,10.0,-999.0,23,-99.99,,,0.00,weatherlink.com 1.10,2013-03-03 22:21:00,
2013-03-03 15:36:00,73.7,34.0,30.03,SW,220,7.0,-999.0,23,-99.99,,,0.00,weatherlink.com 1.10,2013-03-03 22:36:00,
2013-03-03 15:51:00,73.7,34.0,30.01,South,188,5.0,-999.0,23,-99.99,,,0.00,weatherlink.com 1.10,2013-03-03 22:51:00,
2013-03-03 16:06:00,73.2,33.0,30.01,SSE,166,7.0,-999.0,23,-99.99,,,0.00,weatherlink.com 1.10,2013-03-03 23:06:00,
2013-03-03 16:21:00,73.3,33.0,30.01,SSW,204,4.0,-999.0,23,-99.99,,,0.00,weatherlink.com 1.10,2013-03-03 23:21:00,
2013-03-03 16:36:00,72.3,32.0,30.00,South,191,3.0,-999.0,23,-99.99,,,0.00,weatherlink.com 1.10,2013-03-03 23:36:00,
2013-03-03 16:51:00,71.5,33.0,30.00,SSW,194,4.0,-999.0,24,-99.99,,,0.00,weatherlink.com 1.10,2013-03-03 23:51:00,
2013-03-03 17:06:00,70.4,32.0,30.00,South,183,4.0,-999.0,24,-99.99,,,0.00,weatherlink.com 1.10,2013-03-04 00:06:00,
2013-03-03 17:21:00,69.6,32.0,30.00,SSE,167,10.0,-999.0,25,-99.99,,,0.00,weatherlink.com 1.10,2013-03-04 00:21:00,
2013-03-03 17:36:00,68.6,31.0,30.00,SSE,165,4.0,-999.0,25,-99.99,,,0.00,weatherlink.com 1.10,2013-03-04 00:36:00,
2013-03-03 17:51:00,67.8,32.0,29.99,South,184,0.0,-999.0,26,-99.99,,,0.00,weatherlink.com 1.10,2013-03-04 00:51:00,
2013-03-03 18:06:00,67.0,31.0,29.99,South,190,2.0,-999.0,26,-99.99,,,0.00,weatherlink.com 1.10,2013-03-04 01:06:00,
2013-03-03 18:21:00,66.5,30.0,29.99,South,187,1.0,-999.0,26,-99.99,,,0.00,weatherlink.com 1.10,2013-03-04 01:21:00,
2013-03-03 18:36:00,66.0,31.0,29.99,South,175,0.0,-999.0,27,-99.99,,,0.00,weatherlink.com 1.10,2013-03-04 01:36:00,
2013-03-03 18:51:00,65.4,30.0,30.00,SSE,164,4.0,-999.0,27,-99.99,,,0.00,weatherlink.com 1.10,2013-03-04 01:51:00,
2013-03-03 19:06:00,65.1,30.0,29.99,South,178,0.0,-999.0,27,-99.99,,,0.00,weatherlink.com 1.10,2013-03-04 02:06:00,
2013-03-03 19:21:00,64.6,31.0,29.99,South,187,0.0,-999.0,28,-99.99,,,0.00,weatherlink.com 1.10,2013-03-04 02:21:00,
2013-03-03 19:36:00,64.1,30.0,29.99,South,171,2.0,-999.0,28,-99.99,,,0.00,weatherlink.com 1.10,2013-03-04 02:36:00,
2013-03-03 19:51:00,63.5,31.0,29.98,SSE,168,2.0,-999.0,29,-99.99,,,0.00,weatherlink.com 1.10,2013-03-04 02:51:00,
2013-03-03 20:06:00,63.7,30.0,29.98,SSE,165,0.0,-999.0,28,-99.99,,,0.00,weatherlink.com 1.10,2013-03-04 03:06:00,
2013-03-03 20:21:00,63.8,30.0,29.97,South,169,1.0,-999.0,28,-99.99,,,0.00,weatherlink.com 1.10,2013-03-04 03:21:00,
2013-03-03 20:36:00,63.5,30.0,29.97,SSW,194,2.0,-999.0,28,-99.99,,,0.00,weatherlink.com 1.10,2013-03-04 03:36:00,
2013-03-03 20:51:00,63.1,30.0,29.97,SSE,167,2.0,-999.0,29,-99.99,,,0.00,weatherlink.com 1.10,2013-03-04 03:51:00,
2013-03-03 21:06:00,63.1,31.0,29.98,South,182,0.0,-999.0,30,-99.99,,,0.00,weatherlink.com 1.10,2013-03-04 04:06:00,
2013-03-03 21:21:00,62.2,31.0,29.97,South,170,3.0,-999.0,31,-99.99,,,0.00,weatherlink.com 1.10,2013-03-04 04:21:00,
2013-03-03 21:36:00,61.2,32.0,29.97,South,173,3.0,-999.0,33,-99.99,,,0.00,weatherlink.com 1.10,2013-03-04 04:36:00,
2013-03-03 21:51:00,60.7,33.0,29.97,South,171,4.0,-999.0,35,-99.99,,,0.00,weatherlink.com 1.10,2013-03-04 04:51:00,
2013-03-03 22:06:00,60.4,34.0,29.97,South,173,1.0,-999.0,38,-99.99,,,0.00,weatherlink.com 1.10,2013-03-04 05:06:00,
2013-03-03 22:21:00,60.1,36.0,29.97,South,190,0.0,-999.0,40,-99.99,,,0.00,weatherlink.com 1.10,2013-03-04 05:21:00,
2013-03-03 22:36:00,59.3,37.0,29.96,SSW,193,3.0,-999.0,43,-99.99,,,0.00,weatherlink.com 1.10,2013-03-04 05:36:00,
2013-03-03 22:51:00,58.7,37.0,29.95,South,181,0.0,-999.0,44,-99.99,,,0.00,weatherlink.com 1.10,2013-03-04 05:51:00,
2013-03-03 23:06:00,58.5,37.0,29.95,South,186,5.0,-999.0,45,-99.99,,,0.00,weatherlink.com 1.10,2013-03-04 06:06:00,
2013-03-03 23:21:00,58.2,38.0,29.95,SSE,166,4.0,-999.0,47,-99.99,,,0.00,weatherlink.com 1.10,2013-03-04 06:21:00,
2013-03-03 23:36:00,58.0,39.0,29.94,South,181,1.0,-999.0,49,-99.99,,,0.00,weatherlink.com 1.10,2013-03-04 06:36:00,
2013-03-03 23:51:00,57.6,39.0,29.93,South,190,1.0,-999.0,50,-99.99,,,0.00,weatherlink.com 1.10,2013-03-04 06:51:00,